Weather reports worldwide

Advertisment
Santa Cruz de Tenerife, Spain (60020): temperature & dewpoint: 11.10.2018 07:00:00 - 17.10.2018 07:00:00 (WEST)Santa Cruz de Tenerife, Spain (60020): wind speed: 11.10.2018 07:00:00 - 17.10.2018 07:00:00 (WEST)Santa Cruz de Tenerife, Spain (60020): wind direction: 11.10.2018 07:00:00 - 17.10.2018 07:00:00 (WEST)Santa Cruz de Tenerife, Spain (60020): reduced air pressure: 11.10.2018 07:00:00 - 17.10.2018 07:00:00 (WEST)Santa Cruz de Tenerife, Spain (60020): visibility: 11.10.2018 07:00:00 - 17.10.2018 07:00:00 (WEST)Santa Cruz de Tenerife, Spain (60020): precipitation: 11.10.2018 07:00:00 - 17.10.2018 07:00:00 (WEST)
Date & Time tt [°C] td [°C] ff [km/h] ff [kn] dd ppp [hPa] vv [km] rr [mm]
17.10.2018 07:00:00 22,4 14,8 8 4 NNW 1018,9 15 -
17.10.2018 06:00:00 22,4 15,0 11 6 NNW 1018,5 20 0,0
17.10.2018 05:00:00 22,4 16,0 13 7 N 1018,5 20 0,0
17.10.2018 04:00:00 21,9 16,4 2 1 NNW 1018,6 20 -
17.10.2018 03:00:00 21,7 15,8 11 6 WNW 1018,9 20 0,0
17.10.2018 02:00:00 21,9 15,3 13 7 NW 1019,2 20 0,0
17.10.2018 01:00:00 22,1 15,4 9 5 NW 1019,4 20 -
17.10.2018 00:00:00 22,5 15,3 11 6 NW 1019,6 20 0,0
16.10.2018 23:00:00 22,6 14,7 13 7 NNW 1020,0 20 0,0
16.10.2018 22:00:00 22,6 14,9 11 6 NNW 1019,8 20 -
16.10.2018 21:00:00 22,8 15,4 13 7 NNW 1019,6 20 0,0
16.10.2018 20:00:00 23,2 15,0 11 6 NNW 1019,2 20 0,0
16.10.2018 19:00:00 24,3 14,4 9 5 N 1018,9 20 -
16.10.2018 18:00:00 26,1 13,6 11 6 NE 1018,8 20 0,0
16.10.2018 17:00:00 26,6 13,3 13 7 NE 1018,8 20 0,0
16.10.2018 16:00:00 26,7 12,7 15 8 NE 1018,7 20 -
16.10.2018 15:00:00 26,6 14,7 15 8 NE 1018,9 20 0,0
16.10.2018 14:00:00 26,8 14,9 15 8 NE 1019,3 20 0,0
16.10.2018 13:00:00 26,0 14,8 16 9 NE 1020,1 30 -
16.10.2018 12:00:00 25,7 15,1 13 7 N 1020,5 20 0,0
16.10.2018 11:00:00 24,1 14,8 9 5 NE 1020,2 20 0,0
16.10.2018 10:00:00 22,7 15,0 8 4 N 1019,7 30 -
16.10.2018 09:00:00 21,4 15,2 8 4 N 1019,2 20 0,0
16.10.2018 08:00:00 20,6 15,2 5 3 W 1018,9 20 0,0
16.10.2018 07:00:00 20,9 15,0 4 2 NW 1018,7 20 -
16.10.2018 06:00:00 20,8 14,7 5 3 W 1018,5 20 0,0
16.10.2018 05:00:00 20,2 14,3 5 3 W 1018,6 20 0,0
16.10.2018 04:00:00 20,4 14,3 2 1 W 1018,7 20 -
16.10.2018 03:00:00 20,7 14,1 4 2 NW 1018,9 20 0,0
16.10.2018 02:00:00 21,1 14,3 4 2 NNE 1019,0 20 0,0
16.10.2018 01:00:00 21,6 14,3 9 5 NE 1019,1 20 -
16.10.2018 00:00:00 21,9 14,3 9 5 NE 1019,1 20 0,0
15.10.2018 23:00:00 22,0 14,6 8 4 NNE 1018,9 20 0,0
15.10.2018 22:00:00 22,1 14,5 8 4 N 1018,6 20 -
15.10.2018 21:00:00 22,2 14,3 5 3 NNE 1018,0 20 0,0
15.10.2018 20:00:00 22,7 14,5 9 5 NNE 1017,6 20 0,0
15.10.2018 19:00:00 23,5 14,8 11 6 NE 1017,4 20 -
15.10.2018 18:00:00 25,1 14,2 15 8 NNE 1017,2 20 0,0
15.10.2018 17:00:00 25,8 14,0 11 6 NNE 1017,1 20 0,0
15.10.2018 16:00:00 26,1 14,9 13 7 NE 1016,9 20 -
15.10.2018 15:00:00 26,2 14,3 13 7 NNE 1017,2 20 0,0
15.10.2018 14:00:00 25,5 15,8 15 8 ENE 1017,9 20 0,0
15.10.2018 13:00:00 25,2 14,9 15 8 NE 1018,8 20 -
15.10.2018 12:00:00 24,6 14,7 11 6 NE 1019,0 20 0,0
15.10.2018 11:00:00 24,0 15,0 9 5 NE 1018,7 20 0,0
15.10.2018 10:00:00 23,4 15,4 11 6 N 1018,3 20 -
15.10.2018 09:00:00 23,0 16,1 9 5 NNE 1017,3 20 0,0
15.10.2018 08:00:00 22,4 16,9 8 4 NNE 1017,0 20 0,0
15.10.2018 07:00:00 22,0 16,5 9 5 NE 1016,5 10 -
15.10.2018 06:00:00 22,4 17,7 13 7 N 1016,0 16 0,0
15.10.2018 05:00:00 22,8 17,5 8 4 NNE 1016,0 20 0,0
15.10.2018 04:00:00 22,6 17,9 5 3 ENE 1016,3 20 -
15.10.2018 03:00:00 22,7 18,2 5 3 NNE 1016,7 20 0,0
15.10.2018 02:00:00 22,9 17,8 4 2 NE 1017,1 20 0,0
15.10.2018 01:00:00 22,7 18,7 5 3 NNE 1017,4 20 -
15.10.2018 00:00:00 22,7 19,1 5 3 NE 1018,0 18 0,0
14.10.2018 23:00:00 22,6 19,2 5 3 NNE 1018,0 12 0,0
14.10.2018 22:00:00 22,5 19,5 11 6 NE 1017,6 17 -
14.10.2018 21:00:00 22,6 19,8 11 6 NNE 1017,1 14 0,0
14.10.2018 20:00:00 22,8 20,0 13 7 ENE 1016,5 15 0,0
14.10.2018 19:00:00 23,4 20,1 9 5 ENE 1016,1 16 -
14.10.2018 18:00:00 23,9 20,2 13 7 E 1015,9 20 0,0
14.10.2018 17:00:00 25,0 20,3 15 8 E 1015,6 17 0,0
14.10.2018 16:00:00 26,6 20,0 16 9 E 1015,5 20 -
14.10.2018 15:00:00 26,9 19,8 18 10 E 1015,7 20 0,0
14.10.2018 14:00:00 26,5 20,3 15 8 E 1016,4 20 0,0
14.10.2018 13:00:00 24,6 20,5 16 9 E 1017,3 13 -
14.10.2018 12:00:00 24,3 20,2 16 9 E 1017,3 15 0,0
14.10.2018 11:00:00 26,6 20,0 13 7 E 1016,8 20 0,0
14.10.2018 10:00:00 26,0 18,9 4 2 SE 1016,2 20 -
14.10.2018 09:00:00 23,7 19,2 4 2 SE 1015,8 20 0,0
14.10.2018 08:00:00 22,6 18,6 5 3 NNE 1015,8 20 0,0
14.10.2018 07:00:00 22,7 18,5 2 1 NNE 1015,7 20 -
14.10.2018 06:00:00 22,7 18,7 4 2 SSE 1015,7 20 0,0
14.10.2018 05:00:00 22,8 19,0 4 2 ESE 1015,5 20 0,0
14.10.2018 04:00:00 23,1 19,7 5 3 NE 1015,9 20 -
14.10.2018 03:00:00 23,2 19,8 5 3 ENE 1016,2 20 0,0
14.10.2018 02:00:00 23,6 19,3 5 3 ENE 1016,5 20 0,0
14.10.2018 01:00:00 23,8 19,1 8 4 WNW 1016,8 20 -
14.10.2018 00:00:00 24,0 19,7 8 4 W 1017,0 10 0,0
13.10.2018 23:00:00 23,8 18,7 5 3 ESE 1016,9 20 0,0
13.10.2018 22:00:00 23,4 17,8 4 2 SSE 1016,6 20 -
13.10.2018 21:00:00 23,8 17,8 5 3 S 1016,2 20 0,0
13.10.2018 20:00:00 25,2 18,9 11 6 NW 1015,6 20 0,0
13.10.2018 19:00:00 24,8 17,0 5 3 SSE 1015,6 15 -
13.10.2018 18:00:00 26,3 18,4 8 4 S 1015,7 20 0,0
13.10.2018 17:00:00 26,3 18,4 9 5 S 1016,0 20 0,0
13.10.2018 16:00:00 26,2 18,8 11 6 SSW 1016,2 20 -
13.10.2018 15:00:00 26,9 18,5 11 6 S 1016,7 20 0,0
13.10.2018 14:00:00 26,6 19,5 8 4 S 1017,6 20 0,0
13.10.2018 13:00:00 25,7 18,9 9 5 SSE 1018,1 20 -
13.10.2018 12:00:00 25,6 18,8 8 4 SSW 1018,3 20 0,0
13.10.2018 11:00:00 25,1 18,1 8 4 S 1018,4 20 0,0
13.10.2018 10:00:00 24,5 17,7 8 4 S 1018,2 20 -
13.10.2018 09:00:00 22,2 15,5 5 3 WSW 1017,7 20 0,0
13.10.2018 08:00:00 20,6 15,8 9 5 W 1017,3 20 0,0
13.10.2018 07:00:00 20,9 16,7 8 4 NW 1017,1 20 -
13.10.2018 06:00:00 20,9 16,5 4 2 WSW 1016,9 20 0,0
13.10.2018 05:00:00 21,1 16,3 8 4 WNW 1017,0 20 0,0
13.10.2018 04:00:00 21,4 16,6 11 6 W 1017,4 20 -
13.10.2018 03:00:00 21,2 16,4 5 3 WNW 1017,8 20 0,0
13.10.2018 02:00:00 21,6 17,2 5 3 WNW 1018,1 20 0,0
13.10.2018 01:00:00 21,8 16,7 5 3 WNW 1018,6 20 -
13.10.2018 00:00:00 22,3 15,9 8 4 WNW 1018,9 20 0,0
12.10.2018 23:00:00 22,9 18,9 5 3 ENE 1018,8 20 0,0
12.10.2018 22:00:00 23,0 19,2 5 3 E 1018,6 20 -
12.10.2018 21:00:00 23,2 18,9 5 3 E 1018,3 20 0,0
12.10.2018 20:00:00 23,4 18,9 5 3 ESE 1018,1 20 0,0
12.10.2018 19:00:00 23,9 18,5 8 4 E 1017,8 20 -
12.10.2018 18:00:00 24,9 18,3 9 5 E 1018,3 20 0,0
12.10.2018 17:00:00 25,5 18,9 11 6 E 1018,3 20 0,0
12.10.2018 16:00:00 26,1 19,0 11 6 E 1018,4 20 -
12.10.2018 15:00:00 26,7 19,6 9 5 E 1018,6 20 0,0
12.10.2018 14:00:00 26,0 19,4 11 6 E 1019,0 20 0,0
12.10.2018 13:00:00 25,9 19,3 9 5 E 1019,4 19 -
12.10.2018 12:00:00 25,9 18,8 11 6 E 1019,9 20 0,0
12.10.2018 11:00:00 25,3 19,2 9 5 ESE 1019,9 20 0,0
12.10.2018 10:00:00 25,1 18,3 5 3 ESE 1019,8 20 -
12.10.2018 09:00:00 22,3 16,3 9 5 W 1019,4 20 0,0
12.10.2018 08:00:00 21,0 16,2 9 5 W 1019,1 20 0,0
12.10.2018 07:00:00 21,2 16,8 8 4 W 1018,5 20 -
12.10.2018 06:00:00 21,4 17,0 9 5 W 1018,2 20 0,0
12.10.2018 05:00:00 21,6 17,2 5 3 WNW 1018,0 20 0,0
12.10.2018 04:00:00 22,0 18,0 8 4 W 1018,4 20 -
12.10.2018 03:00:00 22,6 19,2 2 1 W 1018,5 20 0,0
12.10.2018 02:00:00 22,5 19,7 0 0 N 1018,7 20 0,0
12.10.2018 01:00:00 22,9 19,7 4 2 ESE 1018,9 20 -
12.10.2018 00:00:00 22,7 19,3 2 1 E 1019,4 20 0,0
11.10.2018 23:00:00 22,7 19,3 4 2 SSE 1019,0 20 0,0
11.10.2018 22:00:00 23,2 19,4 4 2 S 1018,6 20 -
11.10.2018 21:00:00 23,6 19,1 4 2 ESE 1018,1 20 0,0
11.10.2018 20:00:00 23,9 19,0 4 2 SE 1017,5 20 0,0
11.10.2018 19:00:00 24,2 19,5 5 3 ESE 1017,0 20 -
11.10.2018 18:00:00 25,6 19,5 8 4 SE 1016,5 20 0,0
11.10.2018 17:00:00 26,8 19,4 9 5 S 1016,5 20 0,0
11.10.2018 16:00:00 26,5 19,4 9 5 SE 1016,6 20 -
11.10.2018 15:00:00 26,8 19,4 9 5 SSE 1016,9 20 0,0
11.10.2018 14:00:00 26,8 20,4 11 6 SE 1017,2 20 0,0
11.10.2018 13:00:00 26,5 20,3 9 5 ESE 1017,5 20 -
11.10.2018 12:00:00 26,5 19,9 8 4 ESE 1017,7 20 0,0
11.10.2018 11:00:00 25,7 19,6 9 5 SE 1017,4 20 0,0
11.10.2018 10:00:00 24,8 18,3 5 3 SE 1017,0 30 -
11.10.2018 09:00:00 23,2 15,3 9 5 W 1016,2 20 0,0
11.10.2018 08:00:00 21,6 15,0 5 3 WNW 1015,5 18 0,0
11.10.2018 07:00:00 22,2 17,1 9 5 W 1015,0 20 -

tt = temperature
td = dewpoint
ff = wind speed
dd = wind direction
ppp = reduced air pressure
vv = visibility
rr = precipitation

Next stations